CAPE
50 132 234 260 245 282 296 416 490 584 639 682 656 609 641 730 613 467 385 287 200 80 17 1 0 0 0 0 0 0 0 0
0 2 1 3 32 103 101 117 177 230 300 269 293 313 390 454 420 508 372 240 125 44 1 0 0 0 0 0 0 0 0 0
0 0 0 0 0 48 141 150 109 95 148 146 95 122 204 274 128 247 319 170 61 2 0 0 0 0 0 0 0 0 0 0
0 0 0 0 21 57 3 35 19 11 17 52 56 23 101 242 144 167 143 31 0 0 0 0 0 0 0 0 0 0 0 0
0 0 0 0 7 0 0 35 32 15 1 0 5 162 97 191 0 4 0 5 0 0 0 0 0 0 0 0 0 0 0 0
17 0 34 2 0 0 20 40 78 128 114 49 0 0 0 0 0 0 0 0 0 0 0 0 0 0 0 0 0 0 0 0
0 0 0 0 0 0 0 0 85 157 139 1 0 0 0 0 0 0 0 0 0 0 0 0 0 0 0 0 0 0 0 0
17 0 0 0 0 0 0 0 3 0 20 5 0 0 0 0 0 0 0 0 0 0 0 0 0 0 0 0 0 0 0 0
88 0 0 0 0 0 0 0 0 0 3 0 0 0 0 0 0 0 0 0 0 0 0 0 0 0 0 0 0 0 0 0
74 50 0 0 0 0 0 0 0 0 0 0 0 0 0 0 0 0 0 0 0 0 0 0 0 0 0 0 0 0 0 0
49 2 7 25 43 0 0 0 0 0 0 0 0 0 0 0 0 0 0 0 0 0 0 0 0 0 0 0 0 0 0 0
0 0 0 26 0 0 0 0 0 0 0 0 0 0 0 0 0 0 0 0 0 0 0 0 0 0 0 0 0 0 0 0
0 0 0 0 0 0 0 0 0 0 0 0 0 0 0 0 0 0 0 0 0 0 0 0 0 0 0 0 0 0 0 0
0 0 0 0 0 0 0 0 0 0 0 0 0 0 0 0 0 0 0 0 0 0 0 0 0 0 0 0 0 0 0 0
0 0 0 0 0 0 0 0 0 0 0 0 0 0 0 0 0 0 0 0 0 0 0 0 0 0 0 0 2 0 0 0
0 0 0 0 0 0 0 0 0 0 0 0 0 0 0 0 0 0 0 0 0 0 0 0 1 3 0 0 0 3 0 0
0 0 0 0 0 0 0 0 0 0 0 0 0 0 0 0 0 0 0 0 0 0 0 0 0 0 0 0 0 0 0 0
0 0 0 0 0 0 0 0 0 0 0 0 0 0 0 0 0 0 0 0 0 0 0 0 0 0 0 0 0 0 3 11
0 0 0 0 0 0 0 0 0 0 0 0 0 0 0 0 0 0 0 0 0 0 0 0 0 0 0 0 0 0 1 4
0 0 0 0 0 0 0 0 0 0 0 0 0 0 0 0 0 0 0 0 0 0 0 0 0 0 0 0 0 1 0 6
CIN
-423 -350 -316 -316 -314 -291 -278 -218 -185 -157 -135 -130 -137 -146 -132 -104 -117 -126 -133 -150 -163 -219 -300 -65 -0 -0 -0 -0 -0 -0 -0 -0
-0 -143 -240 -530 -470 -399 -382 -355 -322 -284 -243 -253 -250 -233 -194 -145 -133 -91 -109 -132 -176 -211 -35 -0 -0 -0 -0 -0 -0 -0 -0 -0
-0 -0 -0 -0 -0 -446 -355 -325 -350 -355 -325 -318 -338 -312 -258 -213 -261 -172 -137 -162 -195 -58 -0 -0 -0 -0 -0 -0 -0 -0 -0 -0
-0 -0 -0 -0 -419 -399 -186 -385 -398 -433 -405 -374 -377 -401 -337 -199 -230 -208 -197 -229 -0 -0 -0 -0 -0 -0 -0 -0 -0 -0 -0 -0
-0 -0 -0 -0 -336 -0 -0 -411 -403 -417 -110 -0 -128 -302 -326 -228 -0 -38 -0 -31 -0 -0 -0 -0 -0 -0 -0 -0 -0 -0 -0 -0
-480 -0 -445 -77 -0 -0 -428 -385 -373 -330 -307 -289 -0 -0 -0 -0 -0 -0 -0 -0 -0 -0 -0 -0 -0 -0 -0 -0 -0 -0 -0 -0
-1 -0 -0 -0 -0 -0 -0 -0 -300 -279 -263 -22 -0 -0 -0 -0 -0 -0 -0 -0 -0 -0 -0 -0 -0 -0 -0 -0 -0 -0 -0 -0
-326 -0 -0 -0 -0 -0 -0 -0 -108 -0 -291 -313 -0 -0 -0 -0 -0 -0 -0 -0 -0 -0 -0 -0 -0 -0 -0 -0 -0 -0 -0 -0
-342 -0 -0 -0 -0 -0 -0 -0 -0 -8 -112 -0 -20 -0 -0 -0 -0 -0 -0 -0 -0 -0 -0 -0 -0 -0 -0 -0 -0 -0 -0 -0
-267 -229 -0 -55 -0 -0 -0 -0 -0 -0 -0 -0 -0 -0 -0 -0 -0 -0 -0 -0 -0 -0 -0 -0 -0 -0 -0 -0 -0 -0 -0 -0
-365 -121 -253 -377 -338 -0 -0 -0 -0 -0 -0 -0 -0 -0 -0 -0 -0 -0 -0 -0 -0 -0 -0 -0 -0 -0 -0 -0 -0 -0 -0 -0
-0 -0 -55 -372 -0 -0 -0 -0 -0 -0 -0 -0 -0 -0 -0 -0 -0 -0 -0 -0 -0 -0 -0 -0 -0 -0 -0 -0 -0 -0 -0 -0
-0 -0 -0 -0 -0 -0 -0 -0 -0 -0 -0 -0 -0 -0 -0 -0 -0 -0 -0 -0 -0 -0 -0 -0 -0 -0 -0 -0 -0 -0 -0 -0
-0 -0 -0 -0 -0 -0 -0 -0 -0 -0 -0 -0 -0 -0 -0 -0 -0 -0 -0 -0 -0 -0 -0 -0 -0 -0 -0 -0 -1 -0 -0 -0
-0 -0 -0 -0 -0 -0 -0 -0 -0 -0 -0 -0 -0 -0 -0 -0 -0 -0 -0 -0 -0 -0 -0 -0 -0 -0 -0 -0 -5 -1 -0 -0
-0 -0 -0 -0 -0 -0 -0 -0 -0 -0 -0 -0 -0 -0 -0 -0 -0 -0 -0 -0 -0 -0 -0 -0 -17 -43 -12 -0 -0 -35 -0 -0
-0 -0 -0 -0 -0 -0 -0 -0 -0 -0 -0 -0 -0 -0 -0 -0 -0 -0 -0 -0 -0 -0 -0 -0 -0 -0 -0 -0 -0 -0 -0 -0
-0 -0 -0 -0 -0 -0 -0 -0 -0 -0 -0 -0 -0 -0 -0 -0 -0 -0 -0 -0 -0 -0 -0 -0 -0 -0 -0 -0 -0 -0 -0 -1
-0 -0 -0 -0 -0 -0 -0 -0 -0 -0 -0 -0 -0 -0 -0 -0 -0 -0 -0 -0 -0 -0 -0 -0 -0 -0 -0 -0 -0 -0 -4 -1
-0 -0 -0 -0 -0 -0 -0 -0 -0 -0 -0 -0 -0 -0 -0 -0 -0 -0 -0 -0 -0 -0 -0 -0 -0 -0 -0 -0 -0 -2 -0 -1
Wind_Speed
6 6 8 11 11 10 10 9 10 9 9 9 9 9 9 9 8 7 7 6 4 2 0 2 3 5 7 8 8 7 4 4
7 6 6 6 6 10 10 10 9 10 9 10 9 8 7 7 7 5 4 3 3 3 4 4 5 7 8 10 8 8 3 4
6 7 6 6 5 6 8 10 11 10 9 9 7 4 5 5 5 7 6 4 4 6 6 6 6 8 9 9 7 2 4 3
8 7 7 6 6 4 5 5 4 4 4 4 3 4 2 3 5 8 5 6 6 8 8 8 7 4 4 6 2 3 2 3
10 9 7 7 3 4 2 2 2 2 4 5 4 3 3 3 2 3 2 5 3 4 5 3 5 4 4 4 4 3 3 3
10 8 7 6 4 4 4 3 3 3 5 5 4 3 3 3 3 4 3 3 4 4 3 4 5 6 6 6 5 4 3 3
11 11 10 7 7 4 4 5 4 5 5 6 4 4 3 3 2 2 2 1 2 2 2 3 5 6 6 5 6 6 6 4
10 9 8 8 7 7 5 4 5 4 4 5 5 4 4 2 2 2 2 2 2 2 3 4 5 5 6 6 7 6 6 6
13 8 6 6 5 4 3 4 4 4 4 5 6 5 4 4 2 2 1 3 5 5 5 4 5 5 6 6 5 7 6 6
8 7 6 7 4 2 1 2 3 2 4 1 2 3 4 3 1 3 3 4 4 4 3 4 4 4 4 6 5 5 6 7
10 9 6 4 2 4 3 5 4 2 2 3 2 3 4 4 3 2 3 3 4 3 3 2 3 4 6 5 5 5 6 5
12 8 6 5 3 4 4 4 5 4 5 4 5 5 6 5 4 5 5 4 5 4 3 3 2 4 6 7 5 5 4 4
11 9 5 3 2 2 4 3 3 5 6 9 8 8 8 7 4 5 5 5 4 3 3 4 4 4 3 6 3 6 5 5
7 8 7 5 3 2 3 3 4 4 4 6 7 7 6 7 6 6 6 4 6 5 4 3 2 5 2 3 5 6 4 9
6 6 7 4 5 3 3 3 2 2 3 3 4 6 6 6 6 5 4 3 4 4 4 5 2 2 4 1 4 3 7 1
7 5 6 7 8 6 5 3 3 2 2 1 3 5 5 5 5 5 5 3 4 3 3 2 1 2 2 3 1 1 4 9
7 8 8 7 7 6 5 3 1 0 2 3 3 3 5 5 5 5 5 3 3 3 3 2 1 1 0 2 2 2 0 1
6 8 5 6 7 7 7 5 3 2 1 1 2 2 3 4 5 5 4 4 3 3 3 3 3 1 0 1 2 3 3 2
6 6 6 6 7 6 6 4 3 2 0 1 3 2 2 3 3 2 1 1 1 3 3 3 2 2 3 2 3 3 2 3
4 6 7 7 7 6 5 5 3 2 2 2 3 2 1 2 2 1 1 2 2 3 2 3 3 4 4 3 2 3 4 4
Wind_Direction
140 140 132 125 124 126 125 124 128 134 141 131 131 134 146 145 136 142 149 141 119 123 202 279 330 329 324 324 332 350 354 317
151 145 138 139 147 142 145 151 155 156 155 144 151 156 163 163 148 168 168 162 183 227 259 296 312 309 307 311 319 334 357 311
164 157 160 156 158 161 162 177 173 171 172 170 159 173 182 181 184 196 187 195 229 256 272 284 297 299 297 301 324 321 331 331
179 168 167 163 164 157 179 190 195 184 181 175 199 209 195 189 227 226 209 217 241 262 269 280 293 287 292 307 282 289 300 303
184 171 174 163 161 154 196 211 227 209 218 206 193 218 223 199 230 247 250 251 259 274 290 273 270 264 271 274 277 277 260 267
173 160 171 177 164 173 187 195 207 226 231 220 162 157 148 189 205 220 232 247 265 261 272 273 270 262 259 267 262 252 250 258
169 158 156 140 144 166 174 197 207 221 196 193 154 129 145 166 196 212 253 299 265 289 270 273 277 292 291 278 277 271 256 241
174 171 160 147 151 162 174 161 177 188 188 178 169 148 157 155 77 356 344 325 290 264 277 308 305 303 293 288 282 274 262 256
182 134 100 104 141 177 168 185 157 173 181 185 172 171 162 137 159 211 302 347 347 347 342 336 330 327 304 303 293 292 294 282
86 113 120 111 199 70 289 177 163 177 199 148 212 163 150 155 159 26 358 5 11 19 11 354 349 336 317 306 306 302 295 291
99 111 107 112 347 13 17 27 12 72 69 98 104 98 90 72 50 21 21 27 27 18 354 37 324 329 324 319 305 302 295 307
67 59 45 36 11 13 26 42 32 41 49 38 31 47 45 46 27 19 16 22 13 8 10 341 311 303 320 308 297 285 283 297
83 77 44 61 36 16 17 20 17 30 48 44 40 40 45 46 41 34 26 41 7 5 353 342 317 343 334 322 302 280 332 6
78 84 75 72 83 95 87 88 84 69 59 44 51 58 51 60 48 34 31 20 6 3 12 331 323 13 343 286 325 315 19 340
92 105 115 106 90 85 63 72 56 58 48 54 30 58 57 58 51 46 30 37 29 34 32 42 354 331 33 75 332 309 324 338
71 77 59 45 38 53 64 81 35 353 32 96 65 64 68 68 73 73 68 56 40 3 35 41 342 345 309 17 266 312 308 315
89 73 68 71 76 83 85 76 123 62 48 55 32 44 46 63 75 73 60 45 25 11 356 30 55 116 101 317 321 295 98 306
99 109 104 85 88 90 98 90 78 53 5 13 327 40 49 51 68 71 66 48 21 351 346 338 340 344 70 174 310 309 318 289
130 113 98 111 97 77 69 76 69 45 312 275 337 6 35 27 32 57 80 77 354 331 323 318 318 336 265 240 227 225 223 230
105 98 92 68 68 69 66 64 62 17 15 69 53 78 163 230 235 42 346 302 316 315 300 290 273 257 266 251 230 256 256 269